Find Starlink 31891

NORAD ID: 59854 Int'l Des: 2024-097 Owner: SPXS Country: US Constellation: starlink operational
LEOCIRCULAR

当前视图

正在加载3D地球...

About Starlink 31891

Starlink 31891 (NORAD 59854) is a starlink constellation satellite (v2 mini) launched May 23, 2024 by SPXS of US. It operates in LEO, CIRCULAR orbit with a mass of 730.00 kg.

即将过境

Passes for default location (London). Set your location on the main map for personalized predictions.

高度历史

Loading altitude history...

两行轨道根数

1 59854U 24097V 26263.01805316 -.00000610 00000-0 -12640-4 0 9992
2 59854 43.0008 257.1657 0001052 272.8790 87.1941 15.27574198131637
Epoch: Sep 20, 2026 • Age: 15 hours

当前状态

高度 492.7 km
远地点 / 近地点 N/A
速度 7.62 km/s
星下点 -35.51°S, 110.3°W
发射日期 May 23, 2024
运行时间 2.3 years
类型 internet

技术详情

分类 Payload
质量 730.00 kg
干质量 700.00 kg
长度 0.30 m
跨度 29.00 m
形状 ? Box + pan
制造商 SPXS
平台类型 Starlink V2M
阶段状态 In Orbit
所有者/国家 SPXS/US

Most Searched